Wind_Speed
12 11 11 10 10 11 11 12 13 13 13 13 13 13 13 14 16 18 19 21 22 23 23 25 26 27 29 30 32 33 35 36 37 38 39 39 40 41 42 42 42 39
14 13 13 13 12 13 13 14 15 15 15 16 16 16 16 16 17 19 20 22 23 24 24 25 26 28 29 30 32 34 35 37 38 39 40 41 42 43 44 43 43 42
17 15 15 15 15 15 15 15 16 17 17 18 18 18 19 19 19 21 22 23 24 25 26 26 27 28 29 31 33 35 36 37 38 40 41 42 44 45 46 46 46 46
20 19 18 17 16 16 16 17 17 18 19 20 20 21 21 21 22 23 24 25 26 27 27 28 29 29 30 31 33 35 37 38 39 41 42 44 45 47 48 48 49 50
23 22 20 19 19 18 19 18 18 19 21 22 23 24 24 24 24 24 26 27 28 29 29 30 30 31 31 32 34 36 39 40 41 43 44 45 47 48 50 51 51 52
25 24 23 22 21 21 21 20 20 22 23 24 25 26 26 27 26 27 28 29 30 31 31 31 31 32 32 33 35 38 40 42 43 44 45 46 47 49 51 52 53 54
27 27 26 25 24 24 24 23 23 25 26 28 28 28 28 29 28 29 29 31 33 33 34 33 32 32 34 35 36 39 41 43 44 45 46 47 48 50 52 53 54 55
29 29 28 28 27 27 27 27 26 27 28 30 30 30 30 30 30 31 31 32 34 36 36 35 34 34 35 37 38 40 42 43 44 46 47 47 48 50 52 53 54 55
32 32 31 30 30 30 30 29 28 28 30 31 31 31 31 31 32 33 33 34 36 37 38 37 36 36 37 39 40 41 43 44 45 47 48 48 49 50 52 53 54 54
35 35 34 34 34 33 32 30 30 30 31 31 32 32 33 33 34 35 35 36 38 39 40 39 38 39 39 40 41 42 44 45 45 48 49 50 50 51 52 52 53 54
37 37 37 37 36 35 33 32 32 32 33 33 33 33 34 35 36 37 37 38 40 41 42 41 41 41 41 41 42 44 45 45 46 48 50 51 52 52 52 53 53 53
38 38 38 37 37 35 34 34 34 35 35 35 34 35 36 37 38 39 39 40 41 43 44 43 43 43 43 43 43 45 46 46 47 49 51 52 53 53 53 54 54 52
38 38 38 38 37 37 37 37 37 38 38 38 37 37 38 39 39 40 40 42 43 44 45 45 45 45 45 44 45 46 47 47 48 50 52 53 54 55 55 54 54 51
39 39 39 39 39 39 39 40 40 40 40 40 39 39 40 40 40 41 42 44 45 45 46 46 47 47 47 46 46 47 47 47 49 51 53 54 55 57 56 56 54 49
41 41 42 42 42 42 42 42 42 42 42 42 42 42 42 42 42 42 44 45 46 46 47 48 50 50 51 51 50 49 49 48 49 52 54 55 56 57 58 58 53 46
44 44 44 44 44 45 45 45 45 45 45 45 44 44 44 44 43 44 46 47 47 48 49 50 51 53 54 55 54 52 51 50 50 51 53 55 58 58 58 55 49 44
47 47 47 47 48 48 48 48 48 47 47 47 47 46 46 46 46 46 48 49 49 49 51 52 53 54 56 57 57 55 54 52 52 52 53 57 59 58 56 54 49 47
49 50 50 51 51 50 50 50 49 50 50 50 49 48 47 47 48 49 50 51 51 52 53 54 55 57 58 59 59 58 57 55 54 53 54 58 60 58 56 55 53 51
52 52 53 53 52 52 52 51 51 52 53 53 52 51 50 50 51 51 52 53 54 55 55 56 58 59 61 61 61 61 60 58 56 55 55 59 61 61 59 55 53 51
55 54 55 55 54 53 53 54 54 55 56 56 55 54 52 52 52 54 55 56 56 57 58 58 60 62 63 63 63 64 62 60 59 58 58 60 63 63 61 57 55 51
58 58 58 58 57 56 56 56 57 58 58 58 58 57 57 55 55 56 58 59 59 59 60 61 63 65 65 65 66 66 65 62 61 61 62 63 65 65 63 60 55 50
62 62 62 62 61 60 59 59 60 60 60 60 60 60 60 60 59 60 61 62 62 62 62 64 65 67 67 68 68 69 68 65 62 63 65 66 67 67 64 61 56 51
65 65 66 66 65 63 62 62 63 63 62 62 63 63 63 64 64 64 64 64 65 65 66 67 68 68 69 70 71 71 72 68 65 64 65 66 67 65 61 58 55 53
69 69 70 70 69 67 65 65 66 66 66 65 65 66 67 67 68 68 67 67 67 68 69 70 71 70 70 71 73 74 73 71 67 66 66 66 66 63 58 54 52 52
74 73 72 72 72 71 69 69 69 70 69 69 68 68 70 71 71 71 70 70 70 70 71 73 73 72 72 73 75 75 75 73 69 67 68 69 67 63 58 54 53 53
76 76 75 75 75 74 73 72 72 72 72 72 72 71 72 73 73 73 72 72 73 73 73 75 75 74 75 76 77 77 77 74 70 69 70 70 67 62 58 55 54 55
Wind_Direction
249 248 251 258 264 271 278 284 291 297 303 309 315 320 325 331 334 338 341 342 343 344 346 346 345 343 342 341 341 342 343 344 345 346 347 347 347 348 349 351 354 354
258 260 260 263 267 272 279 285 291 296 302 306 312 317 321 326 329 333 335 336 337 339 340 340 340 339 337 336 337 339 340 341 341 342 344 345 345 346 347 348 349 351
261 264 266 268 271 275 279 284 289 295 299 303 310 315 319 323 326 329 330 330 331 333 334 335 335 334 333 333 334 336 338 338 339 340 341 342 344 345 345 346 346 347
257 260 264 268 271 275 278 281 287 291 295 300 306 311 315 319 322 325 326 326 326 328 329 330 329 329 330 330 332 335 336 336 337 338 339 341 342 343 344 344 345 345
254 258 261 265 269 272 276 281 285 288 291 297 302 306 310 314 317 320 322 322 322 323 323 324 325 325 326 327 329 332 333 334 336 337 338 340 341 342 342 343 343 343
254 258 261 264 266 269 275 280 284 285 289 294 298 301 306 309 313 316 318 318 318 318 319 320 321 322 324 324 326 328 330 332 335 336 337 339 340 340 341 341 342 342
254 258 260 262 266 269 274 279 282 284 288 291 294 298 301 305 308 312 314 315 314 314 315 316 317 319 322 323 323 325 327 330 333 335 336 337 338 339 340 340 340 341
254 257 259 262 265 269 273 277 280 282 285 287 290 294 298 302 306 308 310 311 311 311 312 314 314 316 319 321 322 323 325 328 331 333 334 335 337 337 338 338 338 339
254 256 258 261 264 267 271 274 277 280 283 285 287 291 296 300 303 305 306 307 307 308 309 311 312 314 316 318 320 321 323 327 330 330 331 333 335 336 336 336 336 337
255 257 259 261 264 267 270 273 276 279 281 283 286 290 294 298 300 301 302 303 304 305 307 308 310 312 314 316 318 319 321 325 328 329 329 331 333 334 334 334 334 334
257 258 260 263 265 268 271 273 275 277 280 282 285 288 292 295 296 298 299 300 301 303 304 306 308 310 312 315 317 317 320 323 326 327 327 329 331 331 332 333 333 331
259 260 262 264 266 269 271 273 274 276 279 281 284 287 290 292 293 295 298 298 299 302 303 303 305 308 311 314 315 316 319 322 324 325 326 328 329 329 330 331 331 329
260 262 264 266 268 269 271 272 274 276 279 281 283 285 287 290 291 293 295 296 297 301 302 301 302 306 309 312 313 315 318 321 323 323 325 326 327 326 327 329 328 327
261 263 265 266 268 270 271 272 274 276 278 280 282 284 286 288 290 291 293 294 296 299 301 299 300 303 307 310 312 314 316 319 321 322 323 325 324 324 325 326 326 325
261 263 265 266 267 269 271 273 274 276 278 280 282 284 285 286 288 290 292 293 295 297 299 299 300 301 303 306 310 313 315 317 319 321 322 322 321 322 324 325 325 324
262 263 265 267 268 270 272 273 275 276 278 280 281 283 284 284 287 289 290 292 294 296 298 299 300 301 302 304 307 310 312 315 317 319 320 319 318 320 324 325 324 322
263 264 266 267 268 270 272 274 275 277 278 279 280 281 282 284 286 287 289 291 293 295 297 298 300 302 302 303 305 308 310 313 315 318 318 316 316 319 322 324 321 318
263 265 266 267 268 270 272 274 275 276 277 278 279 280 281 283 285 287 289 291 292 294 296 297 299 301 301 302 304 306 309 311 313 316 316 314 315 317 318 320 317 315
263 264 265 266 268 270 272 273 275 275 276 277 278 279 281 282 285 287 289 290 291 293 294 297 298 299 299 301 303 305 308 310 312 313 313 313 314 314 315 317 317 313
263 264 265 266 267 269 271 272 273 274 275 276 278 279 280 282 284 286 288 289 290 292 294 296 296 296 298 300 302 304 306 309 310 310 311 312 313 313 312 314 314 309
264 264 265 266 266 267 268 270 271 272 274 276 278 280 281 282 284 285 287 288 290 291 293 294 294 295 297 299 301 303 305 307 309 309 309 311 312 311 310 312 311 306
263 264 265 266 266 267 267 268 270 271 273 276 278 280 282 283 284 285 286 288 290 291 292 292 293 294 296 298 300 302 303 306 308 308 309 310 311 310 309 311 310 305
262 263 264 265 266 267 268 269 271 272 274 276 278 280 282 283 284 285 286 287 289 290 291 291 292 294 296 298 299 300 302 304 307 308 308 309 310 310 309 308 306 303
261 262 264 266 268 269 270 271 272 274 275 276 278 280 282 283 284 285 287 288 289 290 291 291 292 294 296 297 298 299 301 303 306 307 307 308 310 309 307 306 304 301
261 262 264 266 268 270 271 271 272 273 275 277 278 280 281 282 284 285 287 288 289 290 291 291 293 294 295 296 297 298 300 302 304 306 306 308 309 308 305 304 303 301
262 264 265 267 268 269 270 270 271 273 274 276 277 278 279 280 283 284 286 287 288 289 290 291 292 293 294 295 296 297 298 300 303 304 306 308 308 307 305 303 301 301
Height
10975 10975 10975 10975 10975 10975 10975 10974 10973 10973 10972 10972 10971 10971 10970 10970 10969 10968 10967 10966 10965 10964 10963 10962 10961 10960 10958 10956 10955 10954 10952 10951 10949 10948 10946 10944 10942 10940 10938 10935 10933 10931
10973 10973 10974 10973 10973 10973 10973 10972 10972 10971 10971 10970 10970 10970 10969 10968 10967 10966 10965 10964 10963 10962 10962 10960 10959 10958 10956 10954 10953 10952 10950 10949 10947 10945 10943 10941 10939 10936 10934 10932 10930 10928
10971 10971 10972 10972 10972 10971 10971 10971 10970 10969 10969 10969 10968 10968 10968 10967 10966 10965 10964 10962 10961 10961 10959 10958 10957 10955 10954 10952 10951 10949 10948 10946 10944 10943 10940 10938 10935 10933 10930 10928 10926 10924
10968 10969 10969 10969 10969 10969 10969 10968 10968 10967 10967 10966 10966 10966 10966 10965 10964 10963 10962 10960 10959 10958 10957 10956 10954 10953 10951 10950 10948 10947 10945 10943 10941 10939 10937 10934 10931 10928 10926 10924 10921 10919
10965 10965 10966 10967 10967 10967 10966 10966 10966 10965 10965 10964 10964 10964 10963 10963 10962 10961 10960 10958 10956 10956 10955 10953 10952 10950 10949 10947 10945 10944 10941 10940 10938 10936 10933 10930 10928 10925 10922 10920 10917 10915
10962 10962 10963 10963 10964 10964 10964 10964 10964 10963 10962 10962 10962 10961 10961 10961 10960 10959 10958 10956 10954 10953 10952 10951 10949 10947 10946 10944 10942 10940 10938 10936 10934 10932 10929 10926 10924 10922 10919 10916 10914 10911
10959 10959 10959 10960 10960 10961 10961 10961 10961 10961 10960 10960 10959 10959 10959 10958 10957 10956 10955 10953 10951 10950 10949 10948 10947 10945 10943 10941 10939 10937 10935 10933 10932 10929 10926 10924 10921 10919 10916 10913 10910 10908
10956 10956 10956 10956 10957 10957 10958 10958 10958 10958 10958 10957 10956 10956 10956 10956 10955 10954 10952 10951 10948 10946 10945 10945 10944 10942 10941 10938 10936 10934 10932 10930 10929 10926 10923 10921 10918 10916 10913 10910 10907 10905
10952 10952 10953 10953 10953 10954 10954 10955 10955 10955 10954 10953 10953 10953 10953 10953 10952 10951 10949 10948 10945 10943 10942 10942 10941 10940 10938 10935 10933 10931 10929 10927 10926 10923 10920 10918 10916 10913 10910 10908 10905 10903
10948 10949 10949 10949 10950 10950 10951 10951 10952 10951 10951 10950 10950 10950 10950 10950 10949 10948 10946 10945 10942 10940 10938 10938 10937 10936 10934 10932 10930 10928 10926 10925 10923 10920 10916 10914 10912 10910 10907 10905 10903 10900
10945 10945 10946 10946 10946 10947 10947 10948 10948 10948 10947 10947 10947 10947 10946 10946 10945 10944 10943 10941 10939 10937 10935 10934 10933 10932 10931 10929 10927 10925 10923 10922 10920 10916 10913 10911 10909 10907 10904 10902 10900 10897
10941 10942 10942 10942 10943 10943 10944 10944 10944 10944 10944 10943 10944 10943 10943 10942 10941 10940 10939 10937 10935 10933 10932 10931 10930 10928 10928 10926 10924 10921 10920 10918 10916 10913 10910 10908 10906 10903 10901 10898 10896 10893
10937 10938 10938 10938 10939 10939 10939 10940 10940 10940 10940 10940 10940 10939 10939 10938 10937 10937 10935 10933 10932 10930 10928 10927 10925 10924 10924 10923 10921 10918 10917 10915 10912 10909 10906 10905 10902 10900 10897 10895 10892 10890
10933 10934 10934 10934 10934 10934 10935 10935 10936 10936 10936 10936 10936 10935 10934 10934 10933 10933 10931 10929 10928 10927 10925 10923 10922 10920 10920 10919 10918 10916 10914 10912 10909 10905 10903 10901 10898 10895 10894 10892 10889 10886
10929 10929 10929 10929 10930 10930 10930 10930 10931 10931 10932 10932 10931 10931 10930 10929 10929 10928 10926 10925 10924 10923 10921 10919 10918 10916 10915 10914 10914 10913 10912 10910 10907 10903 10900 10897 10895 10892 10891 10888 10885 10883
10925 10924 10925 10925 10925 10925 10925 10925 10926 10927 10927 10927 10926 10926 10925 10925 10925 10924 10922 10921 10920 10920 10918 10915 10914 10912 10910 10909 10909 10909 10908 10907 10905 10902 10898 10893 10891 10890 10888 10886 10883 10880
10920 10919 10920 10920 10920 10920 10920 10920 10921 10921 10921 10921 10921 10921 10921 10920 10920 10919 10917 10916 10916 10915 10914 10911 10909 10907 10905 10904 10904 10904 10904 10903 10901 10899 10895 10890 10887 10886 10885 10884 10881 10878
10914 10914 10914 10914 10914 10914 10915 10915 10916 10916 10915 10916 10916 10916 10917 10916 10915 10914 10913 10912 10912 10911 10909 10907 10905 10903 10900 10899 10899 10899 10900 10899 10897 10895 10892 10887 10884 10883 10881 10880 10878 10875
10908 10908 10908 10908 10908 10909 10909 10910 10910 10910 10909 10909 10910 10911 10912 10912 10910 10909 10908 10907 10907 10906 10904 10903 10900 10897 10895 10894 10894 10894 10895 10895 10892 10890 10888 10883 10880 10878 10876 10875 10875 10872
10901 10902 10901 10901 10902 10904 10904 10905 10904 10903 10903 10903 10903 10905 10906 10907 10906 10905 10903 10902 10902 10900 10900 10898 10894 10891 10890 10889 10888 10888 10889 10890 10888 10884 10882 10880 10877 10873 10870 10870 10869 10867
10893 10894 10894 10894 10896 10898 10899 10899 10898 10897 10897 10897 10898 10898 10899 10900 10901 10900 10897 10897 10897 10896 10895 10892 10888 10885 10884 10884 10882 10881 10882 10885 10884 10879 10876 10874 10872 10867 10864 10863 10862 10860
10886 10886 10886 10886 10888 10892 10893 10893 10892 10892 10892 10893 10893 10892 10892 10893 10894 10894 10892 10891 10891 10891 10889 10886 10882 10880 10879 10878 10876 10875 10875 10878 10879 10875 10871 10868 10865 10862 10859 10857 10855 10854
10879 10878 10878 10878 10880 10884 10887 10887 10886 10886 10887 10888 10888 10887 10887 10886 10886 10886 10887 10886 10886 10884 10882 10879 10877 10875 10874 10873 10870 10868 10867 10869 10871 10869 10865 10863 10860 10856 10853 10851 10850 10848
10871 10871 10871 10872 10874 10878 10881 10881 10880 10880 10880 10881 10882 10882 10880 10879 10878 10878 10879 10880 10879 10878 10876 10873 10871 10871 10870 10867 10864 10861 10860 10862 10862 10860 10856 10855 10853 10849 10846 10844 10843 10842
10863 10864 10866 10867 10868 10870 10873 10874 10873 10873 10873 10875 10876 10876 10873 10871 10871 10871 10872 10872 10872 10871 10869 10866 10865 10865 10864 10861 10858 10855 10853 10855 10855 10850 10846 10846 10845 10841 10838 10837 10836 10835
10856 10858 10860 10861 10861 10862 10863 10865 10866 10867 10867 10867 10867 10867 10867 10866 10865 10865 10865 10864 10864 10863 10861 10859 10858 10858 10857 10854 10853 10850 10847 10848 10849 10845 10839 10837 10835 10833 10831 10831 10830 10829